Weather History for Hilton Head Island, SC

Change the Weather History Date:

Wednesday, February 13, 2013

  Actual Average Record
Temperature  
Mean Temperature 64 °F -  
Max Temperature 75 °F 61 °F 44 °F (2014)
Min Temperature 53 °F 38 °F 33 °F (2014)
Degree Days  
Heating Degree Days 1    
Growing Degree Days 14 (Base 50)    
Moisture  
Dew Point 58 °F    
Average Humidity 91    
Maximum Humidity 100    
Minimum Humidity 38    
Precipitation  
Precipitation 1.81 in - - ()
Sea Level Pressure  
Sea Level Pressure 29.82 in    
Wind  
Wind Speed 7 mph (SW)    
Max Wind Speed 17 mph    
Max Gust Speed 34 mph    
Visibility 6 miles    
Events Rain , Thunderstorm    
Averages and records for this station are not official NWS values.
T = Trace of Precipitation, MM = Missing Value Source: NWS Daily Summary

Daily Weather History Graph

Daily Weather History Graph

Search for Another Location

Airport:

Trip Planner

Search our weather history database for the weather conditions in past years. The results will help you decide how hot, cold, wet, or windy it might be!

Date:

Astronomy

Feb. 13, 2013 Rise Set
Actual Time 7:06 AM EST 6:07 PM EST
Civil Twilight 6:41 AM EST 6:32 PM EST
Nautical Twilight 6:13 AM EST 7:01 PM EST
Astronomical Twilight 5:44 AM EST 7:29 PM EST
Moon 8:51 AM EST (2/13) 9:50 PM EST (2/13)
Length of Visible Light 11h 50m
Length of Day
11h 00m
Waxing Crescent, 13% of the Moon is Illuminated
Feb 13
Waxing Crescent
Feb 17
First Quarter
Feb 25
Full
Mar 4
Last Quarter
Mar 11
New

Hourly Weather History & Observations

Time (EST) Temp. Dew Point Humidity Pressure Visibility Wind Dir Wind Speed Gust Speed Precip Events Conditions
12:15 AM 55.4 °F 55.4 °F 100% 29.86 in 2.0 mi NE 3.5 mph - 0.23 in Rain Heavy Rain
12:35 AM 55.4 °F 55.4 °F 100% 29.86 in 1.8 mi ENE 4.6 mph - 0.62 in Rain Heavy Rain
12:55 AM 55.4 °F 55.4 °F 100% 29.83 in 3.0 mi East 8.1 mph - 0.66 in Rain Light Rain
1:15 AM 55.4 °F 55.4 °F 100% 29.84 in 3.0 mi Calm Calm - 0.02 in Rain Heavy Rain
1:35 AM 57.2 °F 57.2 °F 100% 29.85 in 2.5 mi NE 3.5 mph - 0.10 in Rain Heavy Rain
1:55 AM 57.2 °F 57.2 °F 100% 29.84 in 2.0 mi SE 3.5 mph - 0.26 in Rain , Thunderstorm Heavy Rain
2:15 AM 59.0 °F 59.0 °F 100% 29.80 in 3.0 mi SSE 3.5 mph - 0.07 in Thunderstorm Overcast
2:35 AM 60.8 °F 60.8 °F 100% 29.80 in 2.0 mi South 4.6 mph - 0.07 in   Light Drizzle
2:55 AM 62.6 °F 62.6 °F 100% 29.79 in 1.5 mi South 4.6 mph - 0.16 in Rain , Thunderstorm Heavy Rain
3:15 AM 62.6 °F 62.6 °F 100% 29.77 in 3.0 mi South 8.1 mph - 0.08 in Thunderstorm Light Drizzle
3:35 AM 62.6 °F 62.6 °F 100% 29.78 in 3.0 mi South 5.8 mph - 0.09 in Rain , Thunderstorm Light Thunderstorms and Rain
3:55 AM 62.6 °F 62.6 °F 100% 29.77 in 1.0 mi South 8.1 mph - 0.46 in Rain , Thunderstorm Heavy Thunderstorms and Rain
4:15 AM 62.6 °F 62.6 °F 100% 29.76 in 3.0 mi South 6.9 mph - 0.00 in Thunderstorm Light Drizzle
4:35 AM 62.6 °F 62.6 °F 100% 29.76 in 2.0 mi SW 9.2 mph - 0.12 in Rain , Thunderstorm Rain
4:55 AM 64.4 °F 64.4 °F 100% 29.78 in 2.5 mi SSW 8.1 mph 17.3 mph 0.26 in Rain , Thunderstorm Heavy Rain
5:15 AM 64.4 °F 64.4 °F 100% 29.77 in 5.0 mi SSW 5.8 mph - 0.00 in Thunderstorm Overcast
5:35 AM 64.4 °F 64.4 °F 100% 29.77 in 5.0 mi South 4.6 mph - 0.00 in   Overcast
6:50 AM 62.6 °F 62.6 °F 100% 29.78 in 2.0 mi South 5.8 mph - N/A Rain Light Rain
7:50 AM 64.4 °F 64.4 °F 100% 29.80 in 2.0 mi Calm Calm - N/A   Overcast
8:50 AM 62.6 °F 62.6 °F 100% 29.81 in 2.0 mi Calm Calm - N/A   Mostly Cloudy
9:50 AM 66.2 °F 64.4 °F 94% 29.82 in 7.0 mi South 9.2 mph - N/A   Mostly Cloudy
10:50 AM 68.0 °F 64.4 °F 88% 29.82 in 7.0 mi SW 9.2 mph 16.1 mph N/A   Overcast
11:58 AM 66.2 °F 64.4 °F 94% 29.80 in 8.0 mi SSW 4.6 mph - N/A   Mostly Cloudy
1:55 PM 71.6 °F 62.6 °F 73% 29.74 in 10.0 mi South 5.8 mph - N/A   Mostly Cloudy
2:53 PM 73.4 °F 62.6 °F 69% 29.74 in 10.0 mi SSW 8.1 mph - N/A   Mostly Cloudy
3:50 PM 75.2 °F 50.0 °F 41% 29.74 in 10.0 mi West 13.8 mph 26.5 mph N/A   Overcast
4:50 PM 71.6 °F 44.6 °F 38% 29.80 in 10.0 mi WSW 13.8 mph 28.8 mph N/A   Mostly Cloudy
5:50 PM 68.0 °F 42.8 °F 40% 29.82 in 10.0 mi West 17.3 mph 34.5 mph N/A   Mostly Cloudy
6:50 PM 66.2 °F 44.6 °F 46% 29.83 in 10.0 mi WSW 10.4 mph 18.4 mph N/A   Mostly Cloudy
7:50 PM 66.2 °F 44.6 °F 46% 29.85 in 10.0 mi WSW 12.7 mph 20.7 mph N/A   Mostly Cloudy
8:15 PM 64.4 °F 64.4 °F 100% 29.85 in 10.0 mi West 13.8 mph 24.2 mph 0.00 in   Overcast
8:35 PM 64.4 °F 64.4 °F 100% 29.84 in 10.0 mi West 11.5 mph 23.0 mph 0.00 in   Overcast
8:55 PM 64.4 °F 64.4 °F 100% 29.88 in 10.0 mi West 10.4 mph 19.6 mph 0.00 in   Overcast
9:15 PM 62.6 °F 62.6 °F 100% 29.86 in 10.0 mi West 13.8 mph 23.0 mph 0.00 in   Mostly Cloudy
9:35 PM 60.8 °F 60.8 °F 100% 29.88 in 10.0 mi West 16.1 mph 26.5 mph 0.00 in   Overcast
9:55 PM 57.2 °F 57.2 °F 100% 29.89 in 10.0 mi NW 13.8 mph 26.5 mph 0.00 in Rain Light Rain
10:15 PM 55.4 °F 55.4 °F 100% 29.91 in 10.0 mi West 13.8 mph 23.0 mph 0.00 in Rain Light Rain
10:35 PM 53.6 °F 53.6 °F 100% 29.92 in 9.0 mi West 10.4 mph 18.4 mph 0.01 in Rain Light Rain
10:55 PM 53.6 °F 53.6 °F 100% 29.88 in 10.0 mi WNW 8.1 mph - 0.01 in   Clear
11:15 PM 53.6 °F 53.6 °F 100% 29.91 in 10.0 mi WNW 9.2 mph - 0.00 in   Clear
11:35 PM 53.6 °F 53.6 °F 100% 29.91 in 10.0 mi West 8.1 mph 16.1 mph 0.00 in   Light Drizzle
11:55 PM 53.6 °F 53.6 °F 100% 29.92 in 10.0 mi West 6.9 mph - 0.00 in   Clear